Total_Precipitation_Accumulation
0.25 0.33 0.36 0.41 0.36 0.32 0.30 0.31 0.50 0.60 0.74 0.90 0.86 1.01 1.37 1.21 1.08 1.02 1.04 1.05 1.03 1.09 1.27 1.37 1.35 1.33 1.47 1.62 1.77 1.95 2.08 2.19 2.45 2.73 2.59 2.31 2.24 2.17 2.12 2.21 2.33 2.64 2.81 2.90
0.22 0.29 0.33 0.36 0.37 0.34 0.29 0.29 0.32 0.49 0.74 0.86 0.93 1.00 1.15 1.14 1.20 1.23 1.09 1.07 1.05 1.20 1.25 1.29 1.41 1.42 1.47 1.52 1.65 1.87 2.03 2.11 2.29 2.38 2.21 2.00 1.90 1.97 2.06 2.16 2.34 2.53 2.66 2.79
0.34 0.30 0.36 0.42 0.38 0.35 0.31 0.39 0.41 0.56 0.76 0.85 1.04 1.00 1.03 1.21 1.28 1.21 1.00 1.04 1.12 1.18 1.36 1.33 1.37 1.41 1.42 1.53 1.74 1.95 1.98 1.96 2.07 2.17 2.21 2.13 1.92 2.01 2.17 2.29 2.37 2.44 2.49 2.54
0.53 0.57 0.70 0.56 0.48 0.44 0.43 0.53 0.57 0.67 0.76 0.87 1.06 1.04 0.93 0.96 1.03 1.12 1.14 1.22 1.23 1.22 1.30 1.27 1.26 1.33 1.35 1.38 1.67 1.95 2.00 2.03 2.13 2.30 2.37 2.38 2.35 2.30 2.39 2.48 2.49 2.52 2.61 2.63
0.76 0.77 0.70 0.69 0.66 0.68 0.80 1.01 0.91 0.89 0.88 0.93 0.92 1.04 1.14 1.05 1.02 1.16 1.22 1.39 1.42 1.32 1.42 1.51 1.53 1.53 1.56 1.57 1.79 2.09 2.20 2.22 2.30 2.48 2.58 2.62 2.69 2.72 2.76 2.76 2.63 2.61 2.76 2.82
0.84 0.97 0.98 0.97 0.79 0.72 0.95 1.58 1.44 1.16 1.01 0.98 1.08 1.56 1.81 1.53 1.32 1.29 1.24 1.38 1.57 1.54 1.42 1.48 1.56 1.76 1.94 2.00 2.10 2.23 2.35 2.44 2.48 2.64 2.78 2.75 2.86 3.03 3.18 3.22 3.09 3.12 3.01 2.85
0.92 1.07 1.13 1.02 0.79 0.84 1.55 2.02 1.69 1.48 1.37 1.32 1.50 1.60 1.64 1.47 1.34 1.32 1.28 1.31 1.45 1.64 1.52 1.52 1.66 1.92 2.14 2.22 2.40 2.48 2.56 2.64 2.66 2.80 2.96 3.11 3.33 3.52 3.57 3.53 3.53 3.43 3.15 3.00
1.17 1.46 1.55 1.09 1.02 1.39 1.78 1.55 1.63 1.74 1.87 1.87 1.68 1.45 1.43 1.47 1.40 1.40 1.33 1.32 1.35 1.40 1.48 1.59 1.75 2.07 2.31 2.29 2.32 2.51 2.67 2.79 2.93 3.02 3.03 3.14 3.53 3.68 3.68 3.65 3.51 3.32 3.15 2.91
1.44 1.69 1.50 1.27 1.37 1.44 1.52 1.56 1.62 1.78 1.91 1.75 1.53 1.45 1.51 1.54 1.46 1.42 1.33 1.35 1.38 1.42 1.51 1.67 1.90 2.15 2.47 2.53 2.42 2.43 2.58 2.74 2.91 3.05 3.25 3.48 3.70 3.72 3.68 3.64 3.49 3.29 3.11 2.87
1.74 1.79 1.48 1.41 1.44 1.42 1.52 1.59 1.70 1.64 1.63 1.61 1.55 1.44 1.47 1.47 1.38 1.38 1.35 1.33 1.36 1.54 1.70 1.85 2.06 2.19 2.45 2.41 2.32 2.37 2.42 2.56 2.70 2.82 2.91 3.05 3.32 3.33 3.22 3.20 3.23 3.19 3.10 2.95
2.07 2.04 1.90 1.87 1.78 1.64 1.55 1.52 1.56 1.59 1.53 1.59 1.59 1.56 1.43 1.45 1.48 1.39 1.32 1.39 1.44 1.70 2.00 2.15 2.16 2.15 2.17 2.13 2.16 2.20 2.23 2.31 2.36 2.39 2.49 2.62 2.71 2.83 2.82 2.80 2.81 2.81 2.77 2.72
2.40 2.19 2.09 2.30 2.16 1.92 1.67 1.60 1.67 1.65 1.61 1.64 1.63 1.67 1.53 1.48 1.52 1.39 1.37 1.47 1.62 1.74 1.92 2.06 2.23 2.32 2.34 2.27 2.33 2.35 2.26 2.22 2.23 2.27 2.35 2.38 2.45 2.50 2.54 2.40 2.28 2.17 2.12 2.12
2.19 2.12 2.06 2.10 2.04 1.88 1.76 1.75 1.89 1.94 1.90 1.78 1.71 1.69 1.60 1.51 1.52 1.54 1.54 1.60 1.72 1.75 1.83 1.95 2.08 2.16 2.36 2.53 2.60 2.61 2.52 2.43 2.36 2.29 2.31 2.34 2.37 2.44 2.43 2.31 2.14 1.96 1.85 1.78
2.27 2.24 2.25 2.08 2.03 1.86 1.73 1.77 1.85 1.84 1.86 1.86 1.82 1.74 1.67 1.49 1.46 1.54 1.56 1.65 1.80 1.87 1.91 1.96 2.07 2.14 2.25 2.53 2.70 2.72 2.65 2.59 2.41 2.28 2.21 2.23 2.26 2.33 2.42 2.49 2.38 2.16 1.92 1.75
2.53 2.40 2.30 2.30 2.33 2.09 1.85 1.83 1.81 1.74 1.67 1.77 1.90 1.94 1.87 1.75 1.66 1.64 1.62 1.64 1.78 1.91 2.00 2.08 2.07 2.09 2.23 2.38 2.54 2.57 2.50 2.39 2.26 2.23 2.24 2.24 2.30 2.35 2.35 2.43 2.40 2.35 2.17 1.96
2.52 2.40 2.19 2.21 2.36 2.26 2.08 2.00 2.01 1.96 1.87 1.81 1.83 1.84 1.85 1.87 1.79 1.72 1.64 1.66 1.84 1.90 1.87 2.00 2.08 2.07 2.19 2.42 2.52 2.56 2.55 2.51 2.31 2.25 2.37 2.43 2.45 2.47 2.43 2.48 2.50 2.41 2.19 1.95
2.44 2.46 2.28 2.09 2.14 2.16 2.05 1.99 1.92 1.92 1.92 1.84 1.77 1.72 1.67 1.70 1.82 1.83 1.76 1.70 1.78 1.90 1.93 2.03 2.08 2.05 2.15 2.33 2.54 2.52 2.43 2.42 2.32 2.19 2.26 2.42 2.45 2.46 2.45 2.47 2.43 2.39 2.25 2.07
2.02 2.13 2.13 2.01 1.89 1.88 1.91 1.86 1.90 1.90 1.88 1.81 1.75 1.73 1.72 1.80 1.98 2.13 2.21 2.17 2.06 1.95 1.91 1.94 1.98 1.99 2.05 2.15 2.24 2.27 2.27 2.19 2.04 1.90 1.97 2.09 2.17 2.20 2.25 2.25 2.28 2.29 2.21 2.03
1.83 1.95 1.97 1.89 1.87 1.79 1.86 1.82 1.86 1.85 1.80 1.83 1.83 1.78 1.73 1.80 1.94 2.10 2.27 2.36 2.26 2.12 1.99 1.91 2.02 1.93 1.99 2.07 2.06 2.06 2.04 1.99 1.88 1.71 1.71 1.87 1.94 2.00 2.07 2.06 2.06 2.05 1.96 1.86
2.07 2.08 1.94 1.78 1.83 1.92 1.92 1.90 1.93 1.98 1.79 1.70 1.72 1.78 1.87 1.91 2.01 2.14 2.18 2.20 2.18 2.14 2.07 1.92 1.77 1.73 1.79 1.91 2.01 1.96 1.92 1.92 1.89 1.69 1.64 1.80 1.89 1.98 1.97 1.94 1.96 1.96 1.85 1.81
1.98 1.99 1.90 1.75 1.71 1.70 1.67 1.70 1.76 1.90 1.92 1.82 1.87 1.96 2.04 2.01 2.04 2.22 2.36 2.25 1.97 1.92 1.89 1.88 1.74 1.72 1.72 1.85 1.96 1.92 1.89 1.91 2.01 1.94 1.86 1.86 1.91 1.98 1.94 1.88 1.84 1.80 1.78 1.80
1.87 1.85 1.86 1.85 1.79 1.69 1.54 1.49 1.58 1.73 1.85 1.97 2.05 2.08 2.14 2.18 2.22 2.25 2.18 2.21 2.04 2.07 1.94 1.80 1.73 1.74 1.74 1.74 1.77 1.85 1.88 1.91 2.04 2.05 1.98 1.97 2.05 2.09 2.08 2.02 1.93 1.83 1.79 1.81
1.86 1.90 1.85 1.85 1.87 1.79 1.62 1.53 1.49 1.63 1.77 1.83 1.96 2.15 2.23 2.21 2.27 2.50 2.30 1.94 1.85 1.94 1.88 1.83 1.81 1.77 1.67 1.50 1.57 1.72 1.78 1.84 1.89 1.86 1.77 1.74 1.75 1.79 1.79 1.71 1.70 1.72 1.73 1.71
1.95 1.89 1.86 1.87 1.87 1.78 1.72 1.65 1.62 1.67 1.65 1.66 1.77 1.98 2.23 2.31 2.20 2.07 2.09 2.00 1.82 1.73 1.61 1.67 1.69 1.64 1.64 1.53 1.60 1.72 1.76 1.80 1.80 1.72 1.66 1.62 1.63 1.65 1.64 1.60 1.59 1.61 1.62 1.63
1.96 1.89 1.81 1.81 1.87 1.87 1.79 1.75 1.81 1.79 1.71 1.70 1.73 1.82 1.96 2.14 2.21 1.99 1.76 1.66 1.62 1.50 1.39 1.41 1.42 1.44 1.43 1.43 1.46 1.55 1.72 1.83 1.81 1.67 1.57 1.56 1.58 1.58 1.54 1.48 1.49 1.57 1.59 1.55
2.03 2.01 1.96 1.89 1.85 1.84 1.81 1.84 1.98 1.98 2.01 2.08 1.96 1.84 1.86 1.87 1.87 1.89 1.78 1.60 1.55 1.49 1.33 1.33 1.31 1.29 1.27 1.34 1.35 1.39 1.52 1.71 1.79 1.71 1.56 1.55 1.54 1.54 1.53 1.49 1.42 1.44 1.46 1.46
2.10 2.07 2.01 1.93 1.86 1.75 1.83 1.93 2.05 2.11 2.18 2.29 2.30 2.12 1.99 1.85 1.81 1.81 1.78 1.73 1.59 1.48 1.41 1.38 1.34 1.30 1.28 1.25 1.21 1.20 1.30 1.46 1.54 1.58 1.62 1.62 1.62 1.62 1.57 1.49 1.41 1.36 1.37 1.37